• en Suisse
  • Liste des pays
  • À 7 jours
  • Température de l'eau
  • Carte satellitaire
  • Carte météo
  • Widgets météo
  • user-avatar
    Se connecter

    Météo par heure à Stremutka

    Ce jour, 17 Octobre, Mercredi

    Heure Température Précipitation Vent Pression Humidité
    00:00 +9°C° 0 mm 2 m/s 762 mmHg 92%
    01:00 +9°C° 0 mm 2 m/s 762 mmHg 93%
    02:00 +9°C° 0 mm 2 m/s 763 mmHg 93%
    03:00 +10°C° 0 mm 1 m/s 762 mmHg 93%
    04:00 +9°C° 0 mm 1 m/s 762 mmHg 93%
    05:00 +9°C° 0 mm 1 m/s 762 mmHg 94%
    06:00 +9°C° 0 mm 1 m/s 762 mmHg 93%
    07:00 +8°C° 0 mm 2 m/s 763 mmHg 92%
    08:00 +9°C° 0 mm 2 m/s 763 mmHg 91%
    09:00 +10°C° 0 mm 2 m/s 763 mmHg 84%
    10:00 +13°C° 0 mm 2 m/s 763 mmHg 77%
    11:00 +15°C° 0 mm 2 m/s 763 mmHg 71%
    12:00 +15°C° 0 mm 2 m/s 763 mmHg 69%
    13:00 +16°C° 0 mm 2 m/s 762 mmHg 67%
    14:00 +17°C° 0 mm 2 m/s 762 mmHg 65%
    15:00 +15°C° 0 mm 2 m/s 762 mmHg 71%
    16:00 +14°C° 0 mm 2 m/s 762 mmHg 78%
    17:00 +13°C° 0 mm 2 m/s 762 mmHg 84%
    18:00 +12°C° 0 mm 2 m/s 762 mmHg 86%
    19:00 +10°C° 0 mm 2 m/s 762 mmHg 89%
    20:00 +10°C° 0 mm 2 m/s 762 mmHg 91%
    21:00 +9°C° 0 mm 2 m/s 762 mmHg 92%
    22:00 +9°C° 0 mm 2 m/s 762 mmHg 92%
    23:00 +9°C° 0 mm 2 m/s 762 mmHg 93%

    Demain, 18 Octobre, Jeudi

    Heure Température Précipitation Vent Pression Humidité
    00:00 +8°C° 0 mm 2 m/s 762 mmHg 93%
    01:00 +8°C° 0 mm 2 m/s 762 mmHg 93%
    02:00 +8°C° 0 mm 2 m/s 762 mmHg 94%
    03:00 +8°C° 0 mm 2 m/s 761 mmHg 94%
    04:00 +7°C° 0 mm 2 m/s 761 mmHg 94%
    05:00 +7°C° 0 mm 2 m/s 761 mmHg 94%
    06:00 +7°C° 0 mm 2 m/s 761 mmHg 93%
    07:00 +7°C° 0 mm 2 m/s 761 mmHg 92%
    08:00 +8°C° 0 mm 2 m/s 761 mmHg 91%
    09:00 +9°C° 0 mm 2 m/s 760 mmHg 85%
    10:00 +12°C° 0 mm 2 m/s 760 mmHg 78%
    11:00 +13°C° 0 mm 3 m/s 760 mmHg 72%
    12:00 +14°C° 0 mm 3 m/s 759 mmHg 69%
    13:00 +14°C° 0 mm 3 m/s 759 mmHg 67%
    14:00 +16°C° 0 mm 3 m/s 758 mmHg 65%
    15:00 +14°C° 0 mm 3 m/s 758 mmHg 71%
    16:00 +13°C° 0 mm 3 m/s 758 mmHg 76%
    17:00 +13°C° 0 mm 2 m/s 757 mmHg 81%
    18:00 +11°C° 0 mm 3 m/s 757 mmHg 83%
    19:00 +11°C° 0 mm 3 m/s 757 mmHg 84%
    20:00 +11°C° 0 mm 3 m/s 757 mmHg 85%
    21:00 +10°C° 0 mm 3 m/s 757 mmHg 86%
    22:00 +10°C° 0 mm 3 m/s 757 mmHg 88%
    23:00 +10°C° 0 mm 3 m/s 757 mmHg 89%

    Après-demain, 19 Octobre, Vendredi

    Heure Température Précipitation Vent Pression Humidité
    00:00 +10°C° 0 mm 3 m/s 757 mmHg 90%
    01:00 +10°C° 0 mm 3 m/s 757 mmHg 91%
    02:00 +10°C° 0 mm 3 m/s 757 mmHg 92%
    03:00 +10°C° 0 mm 3 m/s 757 mmHg 92%
    04:00 +10°C° 0 mm 3 m/s 758 mmHg 92%
    05:00 +10°C° 0 mm 3 m/s 758 mmHg 92%
    06:00 +9°C° 0 mm 3 m/s 758 mmHg 91%
    07:00 +9°C° 0 mm 3 m/s 759 mmHg 89%
    08:00 +8°C° 0 mm 3 m/s 759 mmHg 88%
    09:00 +9°C° 0 mm 3 m/s 760 mmHg 81%
    10:00 +10°C° 0 mm 3 m/s 760 mmHg 74%
    11:00 +11°C° 0 mm 3 m/s 760 mmHg 67%
    12:00 +11°C° 0 mm 3 m/s 760 mmHg 65%
    13:00 +11°C° 0 mm 3 m/s 760 mmHg 63%
    14:00 +12°C° 0 mm 4 m/s 761 mmHg 61%
    15:00 +10°C° 0 mm 3 m/s 761 mmHg 67%
    16:00 +9°C° 0 mm 3 m/s 761 mmHg 72%
    17:00 +8°C° 0 mm 2 m/s 761 mmHg 78%
    18:00 +7°C° 0 mm 2 m/s 761 mmHg 81%
    19:00 +7°C° 0 mm 2 m/s 762 mmHg 83%
    20:00 +6°C° 0 mm 2 m/s 762 mmHg 86%
    21:00 +6°C° 0 mm 2 m/s 762 mmHg 88%
    22:00 +6°C° 0 mm 2 m/s 762 mmHg 90%
    23:00 +5°C° 0 mm 2 m/s 762 mmHg 92%

    20 Octobre, Samedi

    Heure Température Précipitation Vent Pression Humidité
    00:00 +5°C° 0 mm 2 m/s 762 mmHg 93%
    01:00 +5°C° 0 mm 2 m/s 763 mmHg 94%
    02:00 +4°C° 0 mm 2 m/s 763 mmHg 95%
    03:00 +4°C° 0 mm 2 m/s 763 mmHg 95%
    04:00 +4°C° 0 mm 2 m/s 763 mmHg 96%
    05:00 +4°C° 0 mm 2 m/s 763 mmHg 96%
    06:00 +4°C° 0 mm 2 m/s 763 mmHg 95%
    07:00 +4°C° 0 mm 2 m/s 763 mmHg 94%
    08:00 +4°C° 0 mm 2 m/s 764 mmHg 93%
    09:00 +6°C° 0 mm 2 m/s 764 mmHg 86%
    10:00 +7°C° 0 mm 2 m/s 764 mmHg 79%
    11:00 +8°C° 0 mm 2 m/s 764 mmHg 72%
    12:00 +9°C° 0 mm 2 m/s 764 mmHg 69%
    13:00 +9°C° 0 mm 2 m/s 763 mmHg 66%
    14:00 +10°C° 0 mm 3 m/s 763 mmHg 63%
    15:00 +9°C° 0 mm 2 m/s 763 mmHg 67%
    16:00 +8°C° 0 mm 2 m/s 763 mmHg 71%
    17:00 +8°C° 0 mm 2 m/s 763 mmHg 75%
    18:00 +7°C° 0 mm 2 m/s 763 mmHg 76%
    19:00 +7°C° 0 mm 2 m/s 762 mmHg 76%
    20:00 +7°C° 0 mm 3 m/s 762 mmHg 77%
    21:00 +7°C° 0 mm 3 m/s 762 mmHg 78%
    22:00 +7°C° 0 mm 2 m/s 762 mmHg 80%
    23:00 +7°C° 0 mm 2 m/s 762 mmHg 81%

    21 Octobre, Dimanche

    Heure Température Précipitation Vent Pression Humidité
    00:00 +7°C° 0 mm 2 m/s 762 mmHg 83%
    01:00 +7°C° 0 mm 2 m/s 762 mmHg 85%
    02:00 +7°C° 0 mm 2 m/s 762 mmHg 87%
    03:00 +7°C° 0 mm 2 m/s 762 mmHg 89%
    04:00 +6°C° 0 mm 2 m/s 762 mmHg 91%
    05:00 +6°C° 0 mm 2 m/s 762 mmHg 93%
    06:00 +6°C° 0 mm 2 m/s 762 mmHg 94%
    07:00 +5°C° 0 mm 2 m/s 762 mmHg 95%
    08:00 +5°C° 0 mm 2 m/s 763 mmHg 96%
    09:00 +6°C° 0 mm 2 m/s 763 mmHg 90%
    10:00 +7°C° 0 mm 2 m/s 763 mmHg 83%
    11:00 +8°C° 0 mm 2 m/s 763 mmHg 77%
    12:00 +9°C° 0 mm 2 m/s 762 mmHg 74%
    13:00 +9°C° 0 mm 3 m/s 762 mmHg 72%
    14:00 +10°C° 0 mm 3 m/s 761 mmHg 69%
    15:00 +9°C° 0 mm 3 m/s 761 mmHg 73%
    16:00 +8°C° 0 mm 3 m/s 761 mmHg 76%
    17:00 +8°C° 0 mm 3 m/s 761 mmHg 80%
    18:00 +8°C° 0 mm 3 m/s 760 mmHg 81%
    19:00 +7°C° 0 mm 4 m/s 760 mmHg 81%
    20:00 +7°C° 0 mm 4 m/s 759 mmHg 82%
    21:00 +7°C° 0 mm 4 m/s 759 mmHg 84%
    22:00 +7°C° 0 mm 5 m/s 758 mmHg 85%
    23:00 +8°C° 0 mm 5 m/s 758 mmHg 87%

    22 Octobre, Lundi

    Heure Température Précipitation Vent Pression Humidité
    00:00 +8°C° 0 mm 5 m/s 757 mmHg 87%
    01:00 +9°C° 0 mm 5 m/s 756 mmHg 88%
    02:00 +9°C° 0 mm 5 m/s 756 mmHg 89%
    03:00 +10°C° 0.1 mm 6 m/s 755 mmHg 88%
    04:00 +10°C° 0.1 mm 6 m/s 754 mmHg 88%
    05:00 +10°C° 0.1 mm 7 m/s 753 mmHg 87%
    06:00 +10°C° 0.2 mm 7 m/s 752 mmHg 85%
    07:00 +10°C° 0.2 mm 7 m/s 752 mmHg 84%
    08:00 +10°C° 0.2 mm 8 m/s 751 mmHg 82%
    09:00 +10°C° 0.1 mm 7 m/s 751 mmHg 79%
    10:00 +11°C° 0.1 mm 7 m/s 752 mmHg 76%
    11:00 +11°C° 0.1 mm 7 m/s 752 mmHg 72%
    12:00 +11°C° 0 mm 7 m/s 752 mmHg 68%
    13:00 +11°C° 0 mm 6 m/s 752 mmHg 64%
    14:00 +11°C° 0 mm 6 m/s 753 mmHg 60%
    15:00 +10°C° 0 mm 6 m/s 753 mmHg 64%
    16:00 +9°C° 0 mm 5 m/s 753 mmHg 67%
    17:00 +8°C° 0 mm 4 m/s 754 mmHg 71%
    18:00 +7°C° 0 mm 4 m/s 754 mmHg 73%
    19:00 +6°C° 0 mm 4 m/s 754 mmHg 76%
    20:00 +7°C° 0 mm 3 m/s 755 mmHg 79%
    21:00 +5°C° 0 mm 3 m/s 755 mmHg 80%
    22:00 +5°C° 0 mm 3 m/s 755 mmHg 81%
    23:00 +4°C° 0 mm 3 m/s 754 mmHg 83%
    Voir plus